| time (UTC) | temp C | wind direction | speed KPH | gust KPH | rain 1hr cm | rain 24hr cm | rain mn cm | humidity % | barometer mb |
| 20260507044438 | 9 | 90 | 0.0 | 0.0 | 0.00 | 0.25 | 0.00 | 92 | 1012.2 |
| 20260507042938 | 8 | 90 | 0.0 | 0.0 | 0.00 | 0.25 | 0.00 | 92 | 1012.2 |
| 20260507041438 | 8 | 90 | 0.0 | 0.0 | 0.00 | 0.25 | 0.00 | 92 | 1011.9 |
| 20260507035938 | 9 | 90 | 0.0 | 0.0 | 0.00 | 0.25 | 0.00 | 92 | 1011.9 |
| 20260507034438 | 9 | 90 | 0.0 | 0.0 | 0.00 | 0.25 | 0.00 | 92 | 1011.9 |
| 20260507032938 | 9 | 90 | 0.0 | 0.0 | 0.00 | 0.25 | 0.00 | 92 | 1011.8 |
| 20260507031438 | 10 | 90 | 0.0 | 0.0 | 0.00 | 0.25 | 0.00 | 92 | 1011.6 |
| 20260507025938 | 10 | 67 | 0.0 | 0.0 | 0.00 | 0.36 | 0.00 | 92 | 1011.8 |
| 20260507024438 | 10 | 67 | 0.0 | 0.0 | 0.00 | 0.36 | 0.00 | 92 | 1011.8 |
| 20260507022938 | 10 | 67 | 0.0 | 0.0 | 0.00 | 0.36 | 0.00 | 91 | 1011.7 |
| 20260507021438 | 10 | 67 | 0.0 | 0.0 | 0.00 | 0.36 | 0.00 | 91 | 1011.7 |
| 20260507015938 | 10 | 67 | 0.0 | 0.0 | 0.00 | 1.50 | 0.00 | 91 | 1011.7 |
| 20260507014439 | 10 | 67 | 0.0 | 0.0 | 0.00 | 1.50 | 0.00 | 91 | 1011.6 |
| 20260507012939 | 10 | 67 | 0.0 | 0.0 | 0.00 | 1.50 | 0.00 | 91 | 1011.6 |
| 20260507011439 | 11 | 67 | 0.0 | 0.0 | 0.00 | 1.50 | 0.00 | 91 | 1011.6 |
| 20260507005939 | 11 | 67 | 0.0 | 0.0 | 0.00 | 3.20 | 0.00 | 91 | 1011.8 |
| 20260507004439 | 11 | 67 | 0.0 | 0.0 | 0.00 | 3.20 | 0.00 | 91 | 1011.7 |
| 20260507002939 | 11 | 67 | 0.0 | 0.0 | 0.00 | 3.20 | 0.00 | 91 | 1011.6 |
| 20260507001439 | 11 | 67 | 1.6 | 1.6 | 0.00 | 3.20 | 0.00 | 91 | 1011.7 |
| 20260506235939 | 11 | 90 | 1.6 | 1.6 | 0.00 | 3.20 | 0.00 | 91 | 1011.6 |
| 20260506234439 | 11 | 90 | 1.6 | 1.6 | 0.05 | 3.20 | 0.00 | 91 | 1011.7 |
| 20260506232939 | 11 | 112 | 0.0 | 0.0 | 0.05 | 3.20 | 0.00 | 91 | 1011.8 |
| 20260506231439 | 11 | 112 | 0.0 | 3.2 | 0.05 | 3.20 | 0.00 | 91 | 1012.1 |
| 20260506225939 | 11 | 112 | 4.8 | 4.8 | 0.10 | 3.20 | 0.00 | 90 | 1011.8 |
| 20260506224439 | 11 | 112 | 1.6 | 1.6 | 0.10 | 3.15 | 0.00 | 90 | 1011.9 |
| 20260506222939 | 11 | 112 | 0.0 | 0.0 | 0.15 | 3.15 | 0.00 | 90 | 1012.1 |
| 20260506221439 | 11 | 135 | 0.0 | 0.0 | 0.15 | 3.15 | 0.00 | 89 | 1011.8 |
| 20260506215939 | 11 | 112 | 1.6 | 1.6 | 0.10 | 3.61 | 0.00 | 88 | 1011.6 |
| 20260506214439 | 11 | 157 | 0.0 | 0.0 | 0.05 | 3.56 | 0.00 | 88 | 1011.8 |
| 20260506213052 | 12 | 157 | 1.6 | 4.8 | 0.00 | 3.51 | 0.00 | 87 | 1011.9 |
| 20260506212939 | 12 | 157 | 1.6 | 4.8 | 0.00 | 3.51 | 0.00 | 87 | 1011.9 |
| 20260506211439 | 12 | 157 | 1.6 | 1.6 | 0.00 | 3.51 | 0.00 | 86 | 1011.7 |
| 20260506205939 | 12 | 135 | 0.0 | 0.0 | 0.00 | 3.61 | 0.00 | 84 | 1011.5 |
| 20260506204439 | 13 | 180 | 0.0 | 9.7 | 0.00 | 3.61 | 0.00 | 84 | 1011.4 |
| 20260506202939 | 13 | 157 | 3.2 | 11.3 | 0.00 | 3.61 | 0.00 | 84 | 1011.4 |
| 20260506201439 | 13 | 135 | 0.0 | 3.2 | 0.00 | 3.61 | 0.00 | 83 | 1011.2 |
| 20260506195939 | 14 | 157 | 3.2 | 6.4 | 0.00 | 3.61 | 0.00 | 83 | 1011.2 |
| 20260506194439 | 15 | 135 | 0.0 | 0.0 | 0.00 | 3.61 | 0.00 | 81 | 1010.8 |
| 20260506192939 | 15 | 135 | 0.0 | 1.6 | 0.00 | 3.61 | 0.00 | 78 | 1010.5 |
| 20260506191439 | 15 | 180 | 3.2 | 3.2 | 0.00 | 3.61 | 0.00 | 76 | 1010.5 |
| 20260506185939 | 16 | 180 | 0.0 | 1.6 | 0.00 | 3.61 | 0.00 | 74 | 1010.0 |
| 20260506184439 | 16 | 270 | 0.0 | 0.0 | 0.00 | 3.61 | 0.00 | 74 | 1010.0 |
| 20260506182939 | 16 | 270 | 0.0 | 0.0 | 0.00 | 3.61 | 0.00 | 72 | 1010.0 |
| 20260506181439 | 16 | 247 | 0.0 | 0.0 | 0.00 | 3.61 | 0.00 | 72 | 1009.8 |
| 20260506175939 | 17 | 180 | 3.2 | 3.2 | 0.00 | 3.61 | 0.00 | 70 | 1009.8 |
| 20260506174439 | 17 | 247 | 6.4 | 8.0 | 0.00 | 3.61 | 0.00 | 68 | 1009.7 |
| 20260506172939 | 17 | 247 | 6.4 | 11.3 | 0.00 | 3.61 | 0.00 | 66 | 1009.5 |
| 20260506171439 | 18 | 270 | 6.4 | 6.4 | 0.00 | 3.61 | 0.00 | 63 | 1009.5 |
| 20260506165939 | 18 | 292 | 8.0 | 11.3 | 0.00 | 3.61 | 0.00 | 63 | 1009.3 |
| 20260506164510 | 18 | 270 | 1.6 | 9.7 | 0.00 | 3.61 | 0.00 | 62 | 1009.3 |
| 20260506164439 | 18 | 270 | 1.6 | 9.7 | 0.00 | 3.61 | 0.00 | 62 | 1009.3 |
| 20260506162939 | 18 | 270 | 8.0 | 24.1 | 0.00 | 3.61 | 0.00 | 62 | 1009.3 |
| 20260506161439 | 17 | 270 | 19.3 | 19.3 | 0.00 | 3.61 | 0.00 | 67 | 1009.1 |
| 20260506155939 | 18 | 270 | 16.1 | 22.5 | 0.00 | 3.61 | 0.00 | 69 | 1008.9 |
| 20260506154439 | 18 | 225 | 8.0 | 8.0 | 0.00 | 3.61 | 0.00 | 75 | 1008.9 |
| 20260506152939 | 18 | 270 | 11.3 | 25.7 | 0.00 | 3.61 | 0.00 | 76 | 1008.9 |
| 20260506151439 | 18 | 270 | 12.9 | 33.8 | 0.00 | 3.61 | 0.00 | 76 | 1008.8 |
| 20260506145939 | 19 | 247 | 22.5 | 22.5 | 0.00 | 3.66 | 0.00 | 73 | 1008.7 |
| 20260506144440 | 20 | 247 | 20.9 | 22.5 | 0.00 | 3.66 | 0.00 | 68 | 1008.6 |
| 20260506142940 | 20 | 225 | 11.3 | 20.9 | 0.00 | 3.66 | 0.00 | 66 | 1008.5 |
| 20260506141512 | 19 | 270 | 6.4 | 8.0 | 0.00 | 3.66 | 0.00 | 73 | 1008.5 |
| 20260506141440 | 19 | 270 | 6.4 | 8.0 | 0.00 | 3.66 | 0.00 | 73 | 1008.5 |
| 20260506135940 | 18 | 270 | 8.0 | 19.3 | 0.00 | 3.66 | 0.00 | 74 | 1008.7 |
| 20260506134515 | 18 | 270 | 12.9 | 17.7 | 0.00 | 3.66 | 0.00 | 71 | 1008.8 |
| 20260506134440 | 18 | 270 | 12.9 | 17.7 | 0.00 | 3.66 | 0.00 | 71 | 1008.8 |
| 20260506132940 | 18 | 292 | 20.9 | 33.8 | 0.00 | 3.66 | 0.00 | 69 | 1008.8 |
| 20260506131440 | 17 | 270 | 12.9 | 33.8 | 0.00 | 3.66 | 0.00 | 69 | 1008.9 |
| 20260506125940 | 19 | 247 | 16.1 | 16.1 | 0.00 | 3.81 | 0.00 | 65 | 1009.1 |
| 20260506124440 | 20 | 225 | 25.7 | 25.7 | 0.00 | 3.81 | 0.00 | 71 | 1009.0 |
| 20260506122940 | 20 | 247 | 14.5 | 20.9 | 0.00 | 3.81 | 0.00 | 70 | 1008.9 |
| 20260506121529 | 20 | 180 | 12.9 | 24.1 | 0.00 | 3.81 | 0.00 | 69 | 1008.8 |
| 20260506121440 | 20 | 180 | 12.9 | 24.1 | 0.00 | 3.81 | 0.00 | 69 | 1008.8 |
| 20260506115940 | 20 | 157 | 8.0 | 19.3 | 0.00 | 3.86 | 0.00 | 72 | 1008.7 |
| 20260506114440 | 19 | 225 | 16.1 | 16.1 | 0.00 | 3.86 | 0.00 | 73 | 1008.8 |
| 20260506112940 | 19 | 180 | 16.1 | 16.1 | 0.00 | 3.86 | 0.00 | 73 | 1009.0 |
| 20260506111440 | 18 | 202 | 12.9 | 19.3 | 0.00 | 3.86 | 0.00 | 77 | 1009.0 |
| 20260506105940 | 18 | 225 | 16.1 | 22.5 | 0.00 | 3.86 | 0.00 | 74 | 1009.2 |
| 20260506104858 | 19 | 180 | 19.3 | 19.3 | 0.00 | 3.86 | 0.00 | 71 | 1009.2 |
| 20260506104440 | 19 | 180 | 19.3 | 19.3 | 0.00 | 3.86 | 0.00 | 71 | 1009.2 |
| 20260506102940 | 19 | 157 | 16.1 | 16.1 | 0.00 | 3.86 | 0.00 | 73 | 1009.2 |
| 20260506101440 | 19 | 202 | 20.9 | 30.6 | 0.00 | 3.86 | 0.00 | 71 | 1009.2 |
| 20260506095940 | 18 | 202 | 14.5 | 16.1 | 0.00 | 4.04 | 0.00 | 74 | 1009.1 |
| 20260506094440 | 18 | 202 | 20.9 | 22.5 | 0.00 | 4.04 | 0.00 | 73 | 1009.1 |
| 20260506092940 | 18 | 180 | 12.9 | 12.9 | 0.00 | 4.04 | 0.00 | 77 | 1009.0 |
| 20260506091440 | 17 | 202 | 22.5 | 22.5 | 0.00 | 4.04 | 0.00 | 75 | 1009.3 |
| 20260506085940 | 17 | 202 | 16.1 | 17.7 | 0.00 | 4.09 | 0.00 | 76 | 1009.5 |
| 20260506084440 | 17 | 180 | 20.9 | 20.9 | 0.00 | 4.09 | 0.00 | 79 | 1009.4 |
| 20260506082940 | 17 | 157 | 3.2 | 14.5 | 0.00 | 4.09 | 0.00 | 81 | 1009.3 |
| 20260506081440 | 16 | 180 | 6.4 | 11.3 | 0.00 | 4.09 | 0.00 | 84 | 1009.4 |
| 20260506072940 | 15 | 90 | 0.0 | 6.4 | 0.00 | 4.09 | 0.00 | 91 | 1009.3 |
| 20260506071511 | 14 | 112 | 0.0 | 0.0 | 0.00 | 4.09 | 0.00 | 92 | 1009.1 |
| 20260506071440 | 14 | 112 | 0.0 | 0.0 | 0.00 | 4.09 | 0.00 | 92 | 1009.1 |
| 20260506061440 | 13 | 157 | 0.0 | 4.8 | 0.05 | 4.09 | 0.00 | 92 | 1009.1 |